DW5310 Weather Reports


time (UTC)temp
C
wind
direction
speed
KPH
gust
KPH
rain 1hr
cm
rain 24hr
cm
rain mn
cm
humidity
%
barometer
mb
20260507010504 18 344 0.0 0.0 0.00 0.00 0.00 71 1018.5
20260507010004 18 305 0.0 0.0 0.00 0.00 0.00 71 1018.5
20260507005504 18 318 0.0 0.0 0.00 0.00 0.00 71 1018.5
20260507005004 18 305 0.0 0.0 0.00 0.00 0.00 72 1018.5
20260507004505 18 24 0.0 0.0 0.00 0.00 0.00 71 1018.5
20260507004004 18 263 0.0 4.8 0.00 0.00 0.00 71 1018.5
20260507003504 18 38 0.0 4.8 0.00 0.00 0.00 71 1018.5
20260507003004 18 80 0.0 9.7 0.00 0.00 0.00 71 1018.5
20260507002506 18 35 0.0 9.7 0.00 0.00 0.00 71 1018.5
20260507002006 18 79 0.0 0.0 0.00 0.00 0.00 71 1018.5
20260507001504 18 76 0.0 0.0 0.00 0.00 0.00 71 1018.5
20260507001005 18 334 0.0 0.0 0.00 0.00 0.00 71 1018.5
20260507000505 18 58 0.0 0.0 0.00 0.00 0.00 70 1018.5
20260506235504 18 306 0.0 0.0 0.00 0.00 0.00 71 1018.5
20260506235004 18 35 0.0 0.0 0.00 0.00 0.00 71 1018.5
20260506234005 18 35 0.0 0.0 0.00 0.00 0.00 70 1019.5
20260506233505 18 97 0.0 0.0 0.00 0.00 0.00 70 1019.5
20260506232504 18 282 0.0 0.0 0.00 0.00 0.00 69 1018.5
20260506232004 18 238 0.0 0.0 0.00 0.00 0.00 71 1018.5
20260506231004 18 125 0.0 0.0 0.00 0.00 0.00 71 1018.5
20260506230503 18 118 0.0 0.0 0.00 0.00 0.00 72 1018.5
20260506230004 18 211 0.0 0.0 0.00 0.00 0.00 72 1018.5
20260506225504 17 117 0.0 0.0 0.00 0.00 0.00 72 1018.5
20260506224504 17 181 0.0 3.2 0.00 0.00 0.00 72 1018.5
20260506223504 17 282 0.0 0.0 0.00 0.00 0.00 74 1018.5
20260506223004 17 243 0.0 0.0 0.00 0.00 0.00 74 1018.5
20260506222504 17 305 0.0 0.0 0.00 0.00 0.00 75 1018.5
20260506221504 17 35 0.0 0.0 0.00 0.00 0.00 75 1018.5
20260506220504 17 35 0.0 0.0 0.00 0.00 0.00 75 1018.5
20260506220004 17 62 0.0 0.0 0.00 0.00 0.00 75 1018.5
20260506215504 17 91 0.0 0.0 0.00 0.00 0.00 75 1018.5
20260506215004 17 257 0.0 0.0 0.00 0.00 0.00 77 1018.5
20260506214504 17 133 0.0 8.0 0.00 0.00 0.00 77 1018.5
20260506214004 17 219 0.0 8.0 0.00 0.00 0.00 77 1018.5
20260506213504 17 305 0.0 0.0 0.00 0.00 0.00 77 1018.5
20260506213004 17 7 0.0 0.0 0.00 0.00 0.00 77 1018.5
20260506212504 17 198 0.0 0.0 0.00 0.00 0.00 78 1018.5
20260506211504 17 129 1.6 8.0 0.00 0.00 0.00 77 1018.5
20260506211004 17 135 0.0 3.2 0.00 0.00 0.00 78 1018.5
20260506210004 16 80 0.0 0.0 0.00 0.00 0.00 79 1018.5
20260506205004 16 293 0.0 9.7 0.00 0.00 0.00 79 1018.5
20260506204003 16 184 0.0 3.2 0.00 0.00 0.00 80 1018.5
20260506203504 16 282 0.0 0.0 0.00 0.00 0.00 80 1018.5
20260506203003 16 170 0.0 0.0 0.00 0.00 0.00 80 1018.5
20260506202504 16 58 0.0 0.0 0.00 0.00 0.00 81 1018.5
20260506202004 16 144 0.0 0.0 0.00 0.00 0.00 81 1018.5
20260506201505 16 260 0.0 0.0 0.00 0.00 0.00 81 1019.5
20260506200005 15 215 0.0 0.0 0.00 0.00 0.00 81 1019.5
20260506194504 16 140 0.0 8.0 0.00 0.00 0.00 82 1019.5
20260506194004 16 128 0.0 0.0 0.00 0.00 0.00 82 1019.5
20260506193504 16 143 0.0 0.0 0.00 0.00 0.00 82 1019.5
20260506193007 16 219 0.0 0.0 0.00 0.00 0.00 82 1018.5
20260506192506 16 256 0.0 11.3 0.00 0.00 0.00 82 1018.5
20260506192007 16 212 0.0 11.3 0.00 0.00 0.00 82 1018.5
20260506191507 16 171 3.2 9.7 0.00 0.00 0.00 83 1018.5
20260506191006 15 151 0.0 0.0 0.00 0.00 0.00 83 1018.5
20260506190507 15 244 0.0 0.0 0.00 0.00 0.00 84 1018.5
20260506190007 15 218 0.0 0.0 0.00 0.00 0.00 84 1019.5
20260506185507 15 115 0.0 0.0 0.00 0.00 0.00 84 1019.5
20260506185006 15 192 0.0 0.0 0.00 0.00 0.00 86 1019.5
20260506183507 14 196 0.0 4.8 0.00 0.00 0.00 86 1018.5
20260506182506 14 139 0.0 0.0 0.00 0.00 0.00 87 1019.5
20260506182007 14 282 0.0 0.0 0.00 0.00 0.00 87 1019.5
20260506181507 14 282 0.0 0.0 0.00 0.00 0.00 87 1019.5
20260506181007 14 282 0.0 0.0 0.00 0.00 0.00 87 1019.5
20260506180506 13 258 0.0 0.0 0.00 0.00 0.00 87 1019.5
20260506180006 13 260 0.0 0.0 0.00 0.00 0.00 87 1018.5
20260506175506 13 260 0.0 0.0 0.00 0.00 0.00 87 1018.5
20260506175007 13 260 0.0 0.0 0.00 0.00 0.00 86 1018.5
20260506174506 13 266 0.0 0.0 0.00 0.00 0.00 87 1018.5
20260506174007 13 110 0.0 0.0 0.00 0.00 0.00 87 1018.5
20260506173507 13 134 0.0 0.0 0.00 0.00 0.00 87 1018.5
20260506172506 13 148 0.0 0.0 0.00 0.00 0.00 87 1018.5
20260506172007 13 148 0.0 0.0 0.00 0.00 0.00 87 1018.5
20260506171006 13 58 0.0 0.0 0.00 0.00 0.00 87 1018.5
20260506170506 13 256 0.0 0.0 0.00 0.00 0.00 87 1018.5
20260506170006 13 51 0.0 0.0 0.00 0.00 0.00 87 1018.5
20260506165506 13 35 0.0 0.0 0.00 0.00 0.00 87 1018.5
20260506164507 13 125 0.0 0.0 0.00 0.00 0.00 87 1018.5
20260506164006 13 192 0.0 0.0 0.00 0.00 0.00 87 1018.5
20260506163506 13 192 0.0 0.0 0.00 0.00 0.00 88 1018.5
20260506163006 13 205 0.0 0.0 0.00 0.00 0.00 88 1018.5
20260506162506 13 125 0.0 0.0 0.00 0.00 0.00 88 1018.5
20260506162006 13 148 0.0 0.0 0.00 0.00 0.00 88 1018.5
20260506161006 13 305 0.0 0.0 0.00 0.00 0.00 88 1018.5
20260506160506 13 305 0.0 0.0 0.00 0.00 0.00 88 1018.5
20260506160006 13 56 0.0 0.0 0.00 0.00 0.00 88 1018.5
20260506155506 13 50 0.0 4.8 0.00 0.00 0.00 89 1018.5
20260506155006 12 85 0.0 4.8 0.00 0.00 0.00 89 1018.5
20260506154506 12 125 0.0 0.0 0.00 0.00 0.00 89 1018.5
20260506154005 12 138 0.0 0.0 0.00 0.00 0.00 89 1018.5
20260506153506 12 35 0.0 0.0 0.00 0.00 0.00 89 1018.5
20260506153007 12 89 0.0 0.0 0.00 0.00 0.00 89 1018.5
20260506152506 12 64 0.0 0.0 0.00 0.00 0.00 89 1018.5
20260506152006 12 125 0.0 0.0 0.00 0.00 0.00 89 1018.5
20260506151506 12 35 0.0 0.0 0.00 0.00 0.00 89 1018.5
20260506151006 12 35 0.0 0.0 0.00 0.00 0.00 88 1018.5
20260506150506 12 35 0.0 0.0 0.00 0.00 0.00 89 1018.5
20260506145509 12 287 0.0 0.0 0.00 0.00 0.00 89 1018.5
20260506145007 12 305 0.0 0.0 0.00 0.00 0.00 89 1018.5
20260506144506 12 305 0.0 0.0 0.00 0.00 0.00 89 1018.5
20260506144005 12 305 0.0 0.0 0.00 0.00 0.00 89 1018.5
20260506143506 12 305 0.0 0.0 0.00 0.00 0.00 89 1018.5
20260506143006 12 35 0.0 0.0 0.00 0.00 0.00 89 1018.5
20260506142506 12 35 0.0 0.0 0.00 0.00 0.00 89 1018.5
20260506142006 12 58 0.0 0.0 0.00 0.00 0.00 89 1018.5
20260506141506 12 58 0.0 0.0 0.00 0.00 0.00 89 1018.5
20260506141006 12 58 0.0 0.0 0.00 0.00 0.00 89 1018.5
20260506140006 12 58 0.0 0.0 0.00 0.00 0.00 89 1018.5
20260506135506 12 96 0.0 0.0 0.00 0.00 0.00 89 1018.5
20260506135007 12 80 0.0 0.0 0.00 0.00 0.00 89 1018.5
20260506134506 12 80 0.0 0.0 0.00 0.00 0.00 89 1018.5
20260506133505 12 80 0.0 0.0 0.00 0.00 0.00 89 1018.5
20260506132506 12 148 0.0 0.0 0.00 0.00 0.00 89 1017.5
20260506132005 12 148 0.0 0.0 0.00 0.00 0.00 89 1017.5
20260506131506 12 148 0.0 0.0 0.00 0.00 0.00 89 1017.5
20260506131007 12 80 0.0 0.0 0.00 0.00 0.00 88 1017.5
20260506130506 12 80 0.0 0.0 0.00 0.00 0.00 88 1017.5
20260506125506 12 102 0.0 0.0 0.00 0.00 0.00 88 1017.5
20260506125006 12 102 0.0 0.0 0.00 0.00 0.00 88 1017.5
20260506123005 12 141 0.0 0.0 0.00 0.00 0.00 88 1017.5
20260506122506 12 98 0.0 0.0 0.00 0.00 0.00 88 1017.5
20260506121506 12 80 0.0 0.0 0.00 0.00 0.00 87 1017.5
20260506121006 12 58 0.0 0.0 0.00 0.00 0.00 87 1017.5
20260506120506 12 102 0.0 0.0 0.00 0.00 0.00 87 1017.5
20260506115506 12 48 0.0 0.0 0.00 0.00 0.00 87 1017.5
20260506115005 12 35 0.0 0.0 0.00 0.00 0.00 87 1017.5
20260506114506 12 102 0.0 0.0 0.00 0.00 0.00 87 1017.5
20260506114005 12 125 0.0 0.0 0.00 0.00 0.00 87 1017.5
20260506113006 12 92 0.0 0.0 0.00 0.00 0.00 87 1017.5
20260506112505 12 47 0.0 0.0 0.00 0.00 0.00 87 1017.5
20260506112006 12 74 0.0 0.0 0.00 0.00 0.00 87 1017.5
20260506111506 12 305 0.0 0.0 0.00 0.00 0.00 87 1016.5
20260506111006 12 133 0.0 0.0 0.00 0.00 0.00 86 1016.5
20260506110506 12 80 0.0 0.0 0.00 0.00 0.00 86 1016.5
20260506110005 12 58 0.0 0.0 0.00 0.00 0.00 86 1016.5
20260506105006 13 80 0.0 0.0 0.00 0.00 0.00 87 1016.5
20260506104505 13 170 0.0 0.0 0.00 0.00 0.00 86 1016.5
20260506104006 13 170 0.0 0.0 0.00 0.00 0.00 87 1016.5
20260506103505 13 163 0.0 0.0 0.00 0.00 0.00 87 1016.5
20260506103005 13 125 0.0 0.0 0.00 0.00 0.00 87 1016.5
20260506102005 13 125 0.0 0.0 0.00 0.00 0.00 87 1016.5
20260506101506 13 125 0.0 0.0 0.00 0.00 0.00 86 1015.5
20260506101005 13 125 0.0 0.0 0.00 0.00 0.00 86 1015.5
20260506100006 13 125 0.0 0.0 0.00 0.00 0.00 86 1016.5
20260506095506 13 125 0.0 0.0 0.00 0.00 0.00 86 1016.5
20260506095005 13 125 0.0 0.0 0.00 0.00 0.00 86 1016.5
20260506094506 13 125 0.0 0.0 0.00 0.00 0.00 86 1016.5
20260506094005 13 125 0.0 0.0 0.00 0.00 0.00 86 1016.5
20260506093505 13 125 0.0 0.0 0.00 0.00 0.00 86 1016.5
20260506093005 13 58 0.0 0.0 0.00 0.00 0.00 85 1016.5
20260506092505 13 58 0.0 0.0 0.00 0.00 0.00 85 1016.5
20260506092005 13 58 0.0 0.0 0.00 0.00 0.00 85 1016.5
20260506091506 13 125 0.0 0.0 0.00 0.00 0.00 85 1015.5
20260506091006 13 125 0.0 0.0 0.00 0.00 0.00 85 1015.5
20260506090505 13 125 0.0 0.0 0.00 0.00 0.00 85 1015.5
20260506090005 13 125 0.0 0.0 0.00 0.00 0.00 85 1015.5
20260506085506 13 111 0.0 0.0 0.00 0.00 0.00 85 1015.5
20260506085005 13 58 0.0 0.0 0.00 0.00 0.00 84 1015.5
20260506083505 13 260 0.0 0.0 0.00 0.00 0.00 84 1015.5
20260506083005 14 260 0.0 0.0 0.00 0.00 0.00 84 1016.5
20260506082005 14 260 0.0 0.0 0.00 0.00 0.00 83 1016.5
20260506081005 14 260 0.0 0.0 0.00 0.00 0.00 83 1016.5
20260506080505 14 260 0.0 0.0 0.00 0.00 0.00 83 1016.5
20260506073505 14 260 0.0 0.0 0.00 0.00 0.00 83 1016.5
20260506072505 14 260 0.0 0.0 0.00 0.00 0.00 83 1016.5
20260506072005 14 260 0.0 0.0 0.00 0.00 0.00 83 1016.5
20260506071505 14 260 0.0 0.0 0.00 0.00 0.00 83 1016.5
20260506071005 14 260 0.0 0.0 0.00 0.00 0.00 83 1016.5
20260506070506 14 260 0.0 0.0 0.00 0.00 0.00 83 1016.5
20260506062505 14 260 0.0 0.0 0.00 0.00 0.00 82 1016.5
20260506062005 14 260 0.0 0.0 0.00 0.00 0.00 82 1016.5
20260506061505 14 260 0.0 0.0 0.00 0.00 0.00 82 1016.5
20260506061005 14 260 0.0 0.0 0.00 0.00 0.00 82 1016.5
20260506060505 14 260 0.0 0.0 0.00 0.00 0.00 83 1016.5
20260506051004 13 260 0.0 0.0 0.00 0.00 0.00 82 1015.5
20260506050505 13 260 0.0 0.0 0.00 0.00 0.00 82 1015.5
20260506045005 13 260 0.0 0.0 0.00 0.00 0.00 81 1015.5
20260506044505 13 260 0.0 0.0 0.00 0.00 0.00 81 1015.5
20260506044006 13 260 0.0 0.0 0.00 0.00 0.00 81 1015.5
20260506043505 13 263 0.0 0.0 0.00 0.00 0.00 80 1015.5
20260506043005 14 282 0.0 0.0 0.00 0.00 0.00 80 1014.5
20260506042505 14 282 0.0 0.0 0.00 0.00 0.00 80 1014.5
20260506042005 14 282 0.0 0.0 0.00 0.00 0.00 80 1014.5
20260506041505 14 260 0.0 0.0 0.00 0.00 0.00 79 1014.5
20260506041004 14 260 0.0 0.0 0.00 0.00 0.00 79 1014.5
20260506040505 14 260 0.0 0.0 0.00 0.00 0.00 79 1014.5
20260506040005 14 260 0.0 0.0 0.00 0.00 0.00 79 1014.5
20260506035505 14 260 0.0 0.0 0.00 0.00 0.00 79 1014.5
20260506035006 15 260 0.0 0.0 0.00 0.00 0.00 79 1014.5
20260506034505 15 260 0.0 0.0 0.00 0.00 0.00 79 1014.5
20260506033505 15 282 0.0 0.0 0.00 0.00 0.00 78 1014.5
20260506033005 15 282 0.0 0.0 0.00 0.00 0.00 78 1013.5
20260506032504 15 272 0.0 0.0 0.00 0.00 0.00 78 1013.5
20260506032004 15 238 0.0 0.0 0.00 0.00 0.00 78 1013.5
20260506031504 15 238 0.0 0.0 0.00 0.00 0.00 78 1014.5
20260506031004 15 238 0.0 0.0 0.00 0.00 0.00 77 1014.5
20260506030505 15 238 0.0 0.0 0.00 0.00 0.00 77 1014.5
20260506030006 15 238 0.0 0.0 0.00 0.00 0.00 77 1014.5
20260506025506 15 238 0.0 0.0 0.00 0.00 0.00 76 1014.5
20260506025004 15 238 0.0 0.0 0.00 0.00 0.00 76 1014.5
20260506024504 16 238 0.0 0.0 0.00 0.00 0.00 76 1014.5
20260506024005 16 238 0.0 0.0 0.00 0.00 0.00 76 1014.5
20260506023505 16 238 0.0 0.0 0.00 0.00 0.00 75 1014.5
20260506022505 16 238 0.0 0.0 0.00 0.00 0.00 75 1014.5
20260506022004 16 238 0.0 0.0 0.00 0.00 0.00 75 1014.5
20260506021504 16 238 0.0 0.0 0.00 0.00 0.00 75 1013.5
20260506021004 16 81 0.0 0.0 0.00 0.00 0.00 75 1013.5
20260506020004 16 58 0.0 0.0 0.00 0.00 0.00 75 1014.5
20260506015504 16 58 0.0 0.0 0.00 0.00 0.00 75 1014.5
20260506015004 16 58 0.0 0.0 0.00 0.00 0.00 75 1014.5
20260506014504 16 58 0.0 0.0 0.00 0.00 0.00 75 1014.5
20260506014004 16 35 0.0 0.0 0.00 0.00 0.00 76 1014.5
20260506013004 16 35 0.0 0.0 0.00 0.00 0.00 75 1014.5
20260506011504 16 51 0.0 0.0 0.00 0.00 0.00 75 1014.5
20260506011005 16 35 0.0 0.0 0.00 0.00 0.00 75 1014.5